Location: Forst
(46.9333°N, 15.4333°E)
Time: 06:36:40
(UTC+00:00)

Cosmos 371 Rocket - Pass Details

Date: 01 December 2020
Orbit: 684 x 698 km, 74.0° (Epoch: 18 January)

Event Time Altitude Azimuth Distance (km) Brightness Sun altitude
Rises 16:42:42 0° 346° (NNW) 3,093 6.6 -15.0°
Reaches altitude 10° 16:45:26 10° 360° (N) 2,170 5.7 -15.5°
Enters shadow 16:49:14 25° 51° (NE) 1,410 4.3 -16.1°
